Location: Enikep?du
(16.5133°N, 80.7066°E)
Time: 18:05:19
(UTC+00:00)

Lacrosse 5 - Pass Details

Date: 20 January 2020
Orbit: 717 x 722 km, 57.0° (Epoch: 17 February)

Event Time Altitude Azimuth Distance (km) Brightness Sun altitude
Rises 00:13:50 0° 212° (SSW) 3,115 5.0 -13.4°
Reaches altitude 10° 00:16:12 10° 212° (SSW) 2,196 4.2 -12.9°
Maximum altitude 00:21:16 87° 301° (WNW) 721 1.8 -11.7°
Drops below altitude 10° 00:26:20 10° 31° (NNE) 2,196 4.5 -10.5°
Sets 00:28:43 0° 32° (NNE) 3,116 5.3 -10.0°
